Vanaf de start van Weerstation Assen op 01-04-2009 wordt iedere 5 minuten data gestuurd naar de Weather Underground. In het overzicht hieronder is dit terug te vinden op datum en per 5 minuten.
Test XHTML 1.0 Strict Page for WU-History Testing
Station Historical Data
 
Dagelijks Overzicht voor Maart 19, 2019 Eenheden:  Metrisch    Engels   Beide
« Vorige Dag
Volgende Dag »
Dagelijks Wekelijks Maandelijks Jaarlijks Custom
  Huidig: Hoog: Laag: Gemiddeld:
Temperatuur: 1.2 °C 2.9 °C 1.1 °C 1.8 °C
Dauwpunt: -0.4 °C 0.7 °C -0.7 °C -0.1 °C
Vochtigheid: 89% 89% 84% 87%
Windsnelheid: 0.0km/h 7.4km/h 0.0km/h 0.6km/h
Windvlaag: 11.3km/h 11.3km/h - -
WindCalm - - West
Luchtdruk: 1025.3 hPa 1025.3 hPa 1022.9 hPa -
Neerslag: 0.0 mm      
Historical Graphs
 
 
Tabel Data voor Maart 19, 2019
Time Temperatuur Dauwpunt Luchtdruk Wind Windsnelheid Windvlaag Vochtigheid Regenval intensiteit (Per uur) Zonkracht Condities
00:00 2.9 °C 0.6 °C 1023.0 hPa WSW 1.6 km/h 9.7 km/h 85% 0.0 mm 0.00 W/m2 RA
00:05 2.9 °C 0.7 °C 1022.9 hPa WSW 1.6 km/h 6.4 km/h 85% 0.0 mm 0.00 W/m2 RA
00:10 2.8 °C 0.6 °C 1022.9 hPa WSW 7.4 km/h 1.8 km/h 85% 0.0 mm 0.00 W/m2 BKN
00:15 2.7 °C 0.3 °C 1023.0 hPa WSW 1.6 km/h 6.4 km/h 84% 0.0 mm 0.00 W/m2 BKN
00:20 2.7 °C 0.4 °C 1023.1 hPa Calm   4.8 km/h 85% 0.0 mm 0.00 W/m2 BKN
00:25 2.6 °C 0.3 °C 1023.2 hPa Calm     85% 0.0 mm 0.00 W/m2 BKN
00:30 2.6 °C 0.3 °C 1023.1 hPa Calm     85% 0.0 mm 0.00 W/m2 BKN
00:35 2.5 °C 0.2 °C 1023.1 hPa Calm   4.8 km/h 85% 0.0 mm 0.00 W/m2 BKN
00:40 2.4 °C 0.2 °C 1023.1 hPa Calm     85% 0.0 mm 0.00 W/m2 BKN
00:45 2.5 °C 0.2 °C 1023.1 hPa West 5.6 km/h 0.6 km/h 85% 0.0 mm 0.00 W/m2 BKN
00:50 2.5 °C 0.2 °C 1023.1 hPa WSW 1.6 km/h 6.4 km/h 85% 0.0 mm 0.00 W/m2 BKN
00:55 2.4 °C 0.3 °C 1023.1 hPa WSW 1.6 km/h 9.7 km/h 86% 0.0 mm 0.00 W/m2 BKN
01:00 2.4 °C 0.3 °C 1023.2 hPa WSW 3.2 km/h 6.4 km/h 86% 0.0 mm 0.00 W/m2 BKN
01:05 2.4 °C 0.3 °C 1023.2 hPa Calm     86% 0.0 mm 0.00 W/m2 CLR
01:10 2.4 °C 0.3 °C 1023.2 hPa Calm     86% 0.0 mm 0.00 W/m2 CLR
01:15 2.4 °C 0.3 °C 1023.3 hPa West 5.6 km/h 2.4 km/h 86% 0.0 mm 0.00 W/m2 CLR
01:20 2.5 °C 0.4 °C 1023.4 hPa Calm   4.8 km/h 86% 0.0 mm 0.00 W/m2 CLR
01:25 2.5 °C 0.4 °C 1023.5 hPa Calm     86% 0.0 mm 0.00 W/m2 CLR
01:30 2.4 °C 0.3 °C 1023.6 hPa Calm     86% 0.0 mm 0.00 W/m2 CLR
01:35 2.3 °C 0.2 °C 1023.6 hPa Calm     86% 0.0 mm 0.00 W/m2 CLR
01:40 2.2 °C 0.1 °C 1023.6 hPa Calm     86% 0.0 mm 0.00 W/m2 CLR
01:45 2.2 °C 0.1 °C 1023.6 hPa Calm     86% 0.0 mm 0.00 W/m2 CLR
01:50 2.1 °C 0.0 °C 1023.7 hPa Calm     86% 0.0 mm 0.00 W/m2 CLR
01:55 2.0 °C -0.1 °C 1023.7 hPa Calm     86% 0.0 mm 0.00 W/m2 CLR
02:00 1.9 °C -0.2 °C 1023.7 hPa Calm     86% 0.0 mm 0.00 W/m2 CLR
02:05 1.9 °C 0.0 °C 1023.8 hPa Calm     87% 0.0 mm 0.00 W/m2 CLR
02:10 1.9 °C -0.1 °C 1023.8 hPa Calm     87% 0.0 mm 0.00 W/m2 CLR
02:15 1.9 °C -0.1 °C 1023.7 hPa Calm     87% 0.0 mm 0.00 W/m2 CLR
02:20 1.8 °C -0.1 °C 1023.6 hPa Calm     87% 0.0 mm 0.00 W/m2 CLR
02:25 1.8 °C -0.1 °C 1023.6 hPa West 1.6 km/h 6.4 km/h 87% 0.0 mm 0.00 W/m2 CLR
02:30 1.9 °C -0.1 °C 1023.9 hPa West 7.4 km/h 3.7 km/h 87% 0.0 mm 0.00 W/m2 CLR
02:35 1.9 °C 0.0 °C 1023.9 hPa West 4.8 km/h 9.7 km/h 87% 0.0 mm 0.00 W/m2 CLR
02:40 2.0 °C 0.1 °C 1024.0 hPa WNW 1.6 km/h 9.7 km/h 87% 0.0 mm 0.00 W/m2 CLR
02:45 2.0 °C 0.1 °C 1024.1 hPa Calm   11.3 km/h 87% 0.0 mm 0.00 W/m2 CLR
02:50 1.9 °C 0.0 °C 1023.9 hPa Calm     87% 0.0 mm 0.00 W/m2 CLR
02:55 1.9 °C 0.0 °C 1024.0 hPa WNW 5.6 km/h 2.1 km/h 87% 0.0 mm 0.00 W/m2 CLR
03:00 1.9 °C 0.0 °C 1024.0 hPa Calm   3.2 km/h 87% 0.0 mm 0.00 W/m2 CLR
03:05 1.9 °C -0.1 °C 1024.0 hPa Calm     87% 0.0 mm 0.00 W/m2 CLR
03:10 1.8 °C -0.1 °C 1024.1 hPa Calm     87% 0.0 mm 0.00 W/m2 CLR
03:15 1.8 °C -0.2 °C 1024.2 hPa Calm     87% 0.0 mm 0.00 W/m2 CLR
03:20 1.7 °C -0.3 °C 1024.2 hPa Calm     87% 0.0 mm 0.00 W/m2 CLR
03:25 1.6 °C -0.3 °C 1024.2 hPa Calm     87% 0.0 mm 0.00 W/m2 CLR
03:30 1.4 °C -0.5 °C 1024.2 hPa Calm     87% 0.0 mm 0.00 W/m2 CLR
03:35 1.4 °C -0.6 °C 1024.1 hPa Calm     87% 0.0 mm 0.00 W/m2 CLR
03:40 1.3 °C -0.6 °C 1024.2 hPa Calm     87% 0.0 mm 0.00 W/m2 CLR
03:45 1.3 °C -0.4 °C 1024.2 hPa Calm     88% 0.0 mm 0.00 W/m2 CLR
03:50 1.3 °C -0.4 °C 1024.2 hPa Calm     88% 0.0 mm 0.00 W/m2 CLR
03:55 1.3 °C -0.4 °C 1024.3 hPa Calm     88% 0.0 mm 0.00 W/m2 CLR
04:00 1.3 °C -0.4 °C 1024.3 hPa Calm     88% 0.0 mm 0.00 W/m2 CLR
04:05 1.4 °C -0.4 °C 1024.3 hPa Calm     88% 0.0 mm 0.00 W/m2 CLR
04:10 1.3 °C -0.4 °C 1024.4 hPa Calm     88% 0.0 mm 0.00 W/m2 CLR
04:15 1.3 °C -0.4 °C 1024.4 hPa Calm     88% 0.0 mm 0.00 W/m2 CLR
04:20 1.3 °C -0.5 °C 1024.5 hPa Calm     88% 0.0 mm 0.00 W/m2 CLR
04:25 1.2 °C -0.6 °C 1024.6 hPa Calm     88% 0.0 mm 0.00 W/m2 CLR
04:30 1.2 °C -0.6 °C 1024.6 hPa Calm     88% 0.0 mm 0.00 W/m2 CLR
04:35 1.1 °C -0.7 °C 1024.7 hPa Calm     88% 0.0 mm 0.00 W/m2 CLR
04:40 1.2 °C -0.6 °C 1024.7 hPa Calm     88% 0.0 mm 0.00 W/m2 CLR
04:45 1.2 °C -0.6 °C 1024.8 hPa Calm     88% 0.0 mm 0.00 W/m2 CLR
04:50 1.2 °C -0.6 °C 1024.8 hPa Calm     88% 0.0 mm 0.00 W/m2 CLR
04:55 1.2 °C -0.5 °C 1024.9 hPa Calm     88% 0.0 mm 0.00 W/m2 CLR
05:00 1.2 °C -0.6 °C 1025.0 hPa Calm     88% 0.0 mm 0.00 W/m2 CLR
05:05 1.2 °C -0.6 °C 1024.9 hPa Calm     88% 0.0 mm 0.00 W/m2 CLR
05:10 1.2 °C -0.6 °C 1025.0 hPa Calm     88% 0.0 mm 0.00 W/m2 CLR
05:15 1.2 °C -0.4 °C 1025.0 hPa Calm     89% 0.0 mm 0.00 W/m2 CLR
05:20 1.2 °C -0.4 °C 1024.9 hPa Calm     89% 0.0 mm 0.00 W/m2 CLR
05:25 1.2 °C -0.4 °C 1024.9 hPa Calm   6.4 km/h 89% 0.0 mm 0.00 W/m2 CLR
05:30 1.2 °C -0.4 °C 1024.9 hPa Calm     89% 0.0 mm 0.00 W/m2 CLR
05:35 1.3 °C -0.3 °C 1024.9 hPa Calm     89% 0.0 mm 0.00 W/m2 CLR
05:40 1.3 °C -0.3 °C 1025.0 hPa Calm     89% 0.0 mm 0.00 W/m2 CLR
05:45 1.3 °C -0.3 °C 1025.1 hPa Calm     89% 0.0 mm 0.00 W/m2 CLR
05:50 1.3 °C -0.3 °C 1025.1 hPa Calm     89% 0.0 mm 0.00 W/m2 CLR
05:55 1.3 °C -0.3 °C 1025.3 hPa Calm     89% 0.0 mm 0.00 W/m2 CLR
06:00 1.3 °C -0.4 °C 1025.3 hPa Calm     89% 0.0 mm 0.00 W/m2 CLR
06:05 1.2 °C -0.4 °C 1025.2 hPa Calm     89% 0.0 mm 0.00 W/m2 CLR
06:10 1.1 °C -0.5 °C 1025.2 hPa Calm     89% 0.0 mm 0.00 W/m2 CLR
06:15 1.1 °C -0.5 °C 1025.2 hPa Calm   4.8 km/h 89% 0.0 mm 0.00 W/m2 OVC
06:20 1.2 °C -0.4 °C 1025.2 hPa Calm     89% 0.0 mm 0.00 W/m2 CLR
06:25 1.1 °C -0.5 °C 1025.3 hPa Calm   4.8 km/h 89% 0.0 mm 0.00 W/m2 OVC
06:30 1.2 °C -0.4 °C 1025.3 hPa Calm   11.3 km/h 89% 0.0 mm 0.00 W/m2 OVC
Weerstation Assen

© 2009 - 2019 Weerstation Assen
alle rechten voorbehouden
www.weerstation-assen.nl

Baseer nooit belangrijke beslissingen op deze of andere weergegevens verkregen via Internet.
Weerstation Assen op Facebook
Weerstation Assen op Twitter